Time,TemperatureF,DewpointF,PressureIn,WindDirection,WindDirectionDegrees,WindSpeedMPH,WindSpeedGustMPH,Humidity,HourlyPrecipIn,Conditions,Clouds,dailyrainin,SoftwareType,DateUTC
2013-04-20 00:01:00,66.0,62.7,29.22,North,360,7.0,20.0,89,0.00,,,0.00,Weather View 32 v70,2013-04-20 04:01:00,
2013-04-20 00:06:00,66.0,62.7,29.22,West,270,11.0,20.0,89,0.00,,,0.00,Weather View 32 v70,2013-04-20 04:06:00,
2013-04-20 00:11:00,66.0,62.7,29.22,West,270,10.0,20.0,89,0.00,,,0.00,Weather View 32 v70,2013-04-20 04:11:00,
2013-04-20 00:16:00,66.0,62.7,29.22,NW,315,6.0,20.0,89,0.00,,,0.00,Weather View 32 v70,2013-04-20 04:16:00,
2013-04-20 00:21:00,66.0,62.3,29.23,NW,315,10.0,18.0,88,0.00,,,0.00,Weather View 32 v70,2013-04-20 04:21:00,
2013-04-20 00:26:00,66.0,62.3,29.23,West,270,10.0,18.0,88,0.00,,,0.00,Weather View 32 v70,2013-04-20 04:26:00,
2013-04-20 00:31:00,66.0,62.3,29.23,West,270,7.0,18.0,88,0.00,,,0.00,Weather View 32 v70,2013-04-20 04:31:00,
2013-04-20 00:36:00,66.0,62.3,29.23,WNW,292,9.0,18.0,88,0.00,,,0.00,Weather View 32 v70,2013-04-20 04:36:00,
2013-04-20 00:41:00,66.0,63.3,29.22,West,270,12.0,18.0,91,0.00,,,0.00,Weather View 32 v70,2013-04-20 04:41:00,
2013-04-20 00:46:00,65.0,63.2,29.22,West,270,10.0,18.0,94,0.00,,,0.00,Weather View 32 v70,2013-04-20 04:46:00,
2013-04-20 00:51:00,65.0,63.5,29.23,West,270,13.0,18.0,95,0.00,,,0.00,Weather View 32 v70,2013-04-20 04:51:00,
2013-04-20 00:56:00,64.0,63.1,29.23,West,270,9.0,18.0,97,0.03,,,0.03,Weather View 32 v70,2013-04-20 04:56:00,
2013-04-20 01:01:00,64.0,63.4,29.23,West,270,9.0,18.0,98,0.04,,,0.04,Weather View 32 v70,2013-04-20 05:01:00,
2013-04-20 01:06:00,64.0,63.4,29.23,West,270,8.0,18.0,98,0.05,,,0.05,Weather View 32 v70,2013-04-20 05:06:00,
2013-04-20 01:11:00,64.0,63.4,29.23,West,270,7.0,17.0,98,0.08,,,0.08,Weather View 32 v70,2013-04-20 05:11:00,
2013-04-20 01:16:00,64.0,63.4,29.23,West,270,7.0,17.0,98,0.08,,,0.08,Weather View 32 v70,2013-04-20 05:16:00,
2013-04-20 01:21:00,63.0,62.4,29.23,West,270,6.0,17.0,98,0.08,,,0.08,Weather View 32 v70,2013-04-20 05:21:00,
2013-04-20 01:26:00,63.0,62.4,29.23,West,270,5.0,17.0,98,0.09,,,0.09,Weather View 32 v70,2013-04-20 05:26:00,
2013-04-20 01:31:00,63.0,62.4,29.23,NW,315,4.0,17.0,98,0.09,,,0.09,Weather View 32 v70,2013-04-20 05:31:00,
2013-04-20 01:36:00,63.0,62.4,29.23,West,270,6.0,17.0,98,0.00,,,0.10,Weather View 32 v70,2013-04-20 05:36:00,
2013-04-20 01:41:00,63.0,62.4,29.22,WSW,247,7.0,17.0,98,0.10,,,0.10,Weather View 32 v70,2013-04-20 05:41:00,
2013-04-20 01:46:00,63.0,62.4,29.22,NW,315,6.0,17.0,98,0.10,,,0.10,Weather View 32 v70,2013-04-20 05:46:00,
2013-04-20 01:51:00,63.0,62.4,29.22,WNW,292,3.0,16.0,98,0.11,,,0.11,Weather View 32 v70,2013-04-20 05:51:00,
2013-04-20 01:56:00,63.0,62.4,29.22,NW,315,6.0,14.0,98,0.08,,,0.11,Weather View 32 v70,2013-04-20 05:56:00,
2013-04-20 02:01:00,63.0,62.4,29.22,WSW,247,6.0,14.0,98,0.07,,,0.11,Weather View 32 v70,2013-04-20 06:01:00,
2013-04-20 02:06:00,63.0,62.4,29.22,WNW,292,6.0,13.0,98,0.06,,,0.11,Weather View 32 v70,2013-04-20 06:06:00,
2013-04-20 02:11:00,63.0,62.4,29.21,SW,225,2.0,12.0,98,0.03,,,0.11,Weather View 32 v70,2013-04-20 06:11:00,
2013-04-20 02:16:00,63.0,62.4,29.21,WNW,292,9.0,12.0,98,0.03,,,0.11,Weather View 32 v70,2013-04-20 06:16:00,
2013-04-20 02:21:00,62.0,61.4,29.21,ENE,67,6.0,12.0,98,0.03,,,0.11,Weather View 32 v70,2013-04-20 06:21:00,
2013-04-20 02:26:00,62.0,61.4,29.21,West,270,5.0,12.0,98,0.02,,,0.11,Weather View 32 v70,2013-04-20 06:26:00,
2013-04-20 02:31:00,62.0,61.4,29.21,West,270,5.0,12.0,98,0.02,,,0.11,Weather View 32 v70,2013-04-20 06:31:00,
2013-04-20 02:36:00,62.0,61.4,29.21,ESE,112,2.0,12.0,98,0.00,,,0.11,Weather View 32 v70,2013-04-20 06:36:00,
2013-04-20 02:41:00,62.0,61.4,29.20,NW,315,7.0,12.0,98,0.01,,,0.11,Weather View 32 v70,2013-04-20 06:41:00,
2013-04-20 02:46:00,62.0,61.4,29.20,West,270,3.0,11.0,98,0.01,,,0.11,Weather View 32 v70,2013-04-20 06:46:00,
2013-04-20 02:51:00,62.0,61.4,29.21,West,270,7.0,11.0,98,0.00,,,0.11,Weather View 32 v70,2013-04-20 06:51:00,
2013-04-20 02:56:00,62.0,61.4,29.21,WNW,292,6.0,11.0,98,0.00,,,0.11,Weather View 32 v70,2013-04-20 06:56:00,
2013-04-20 03:01:00,62.0,61.4,29.21,West,270,9.0,11.0,98,0.00,,,0.11,Weather View 32 v70,2013-04-20 07:01:00,
2013-04-20 03:06:00,62.0,61.4,29.21,West,270,6.0,12.0,98,0.00,,,0.11,Weather View 32 v70,2013-04-20 07:06:00,
2013-04-20 03:11:00,60.0,59.4,29.23,West,270,6.0,12.0,98,0.03,,,0.14,Weather View 32 v70,2013-04-20 07:11:00,
2013-04-20 03:16:00,59.0,58.4,29.23,NW,315,2.0,12.0,98,0.04,,,0.15,Weather View 32 v70,2013-04-20 07:16:00,
2013-04-20 03:21:00,58.0,57.4,29.23,SW,225,3.0,12.0,98,0.04,,,0.15,Weather View 32 v70,2013-04-20 07:21:00,
2013-04-20 03:26:00,57.0,56.4,29.23,NW,315,3.0,12.0,98,0.04,,,0.15,Weather View 32 v70,2013-04-20 07:26:00,
2013-04-20 03:31:00,56.0,55.2,29.25,NNW,337,4.0,12.0,97,0.05,,,0.16,Weather View 32 v70,2013-04-20 07:31:00,
2013-04-20 03:36:00,55.0,54.2,29.25,West,270,3.0,12.0,97,0.05,,,0.16,Weather View 32 v70,2013-04-20 07:36:00,
2013-04-20 03:41:00,54.0,53.2,29.26,NW,315,3.0,12.0,97,0.06,,,0.17,Weather View 32 v70,2013-04-20 07:41:00,
2013-04-20 03:46:00,53.0,52.2,29.26,NW,315,0.0,12.0,97,0.06,,,0.17,Weather View 32 v70,2013-04-20 07:46:00,
2013-04-20 03:51:00,53.0,52.2,29.26,North,360,3.0,12.0,97,0.06,,,0.17,Weather View 32 v70,2013-04-20 07:51:00,
2013-04-20 03:56:00,52.0,51.2,29.26,WNW,292,4.0,12.0,97,0.06,,,0.17,Weather View 32 v70,2013-04-20 07:56:00,
2013-04-20 04:01:00,52.0,51.2,29.27,WNW,292,3.0,12.0,97,0.06,,,0.17,Weather View 32 v70,2013-04-20 08:01:00,
2013-04-20 04:06:00,51.0,50.2,29.27,NW,315,1.0,11.0,97,0.07,,,0.18,Weather View 32 v70,2013-04-20 08:06:00,
2013-04-20 04:11:00,51.0,50.2,29.29,West,270,3.0,11.0,97,0.04,,,0.18,Weather View 32 v70,2013-04-20 08:11:00,
2013-04-20 04:16:00,51.0,50.2,29.29,NW,315,6.0,11.0,97,0.04,,,0.19,Weather View 32 v70,2013-04-20 08:16:00,
2013-04-20 04:21:00,51.0,50.2,29.30,West,270,1.0,11.0,97,0.04,,,0.19,Weather View 32 v70,2013-04-20 08:21:00,
2013-04-20 04:26:00,51.0,50.2,29.30,West,270,4.0,11.0,97,0.04,,,0.19,Weather View 32 v70,2013-04-20 08:26:00,
2013-04-20 04:31:00,51.0,50.2,29.30,West,270,3.0,11.0,97,0.04,,,0.20,Weather View 32 v70,2013-04-20 08:31:00,
2013-04-20 04:36:00,50.0,49.2,29.30,NW,315,3.0,9.0,97,0.04,,,0.20,Weather View 32 v70,2013-04-20 08:36:00,
2013-04-20 04:41:00,50.0,49.2,29.28,WNW,292,4.0,9.0,97,0.03,,,0.20,Weather View 32 v70,2013-04-20 08:41:00,
2013-04-20 04:46:00,50.0,49.2,29.28,NW,315,4.0,9.0,97,0.04,,,0.21,Weather View 32 v70,2013-04-20 08:46:00,
2013-04-20 04:51:00,50.0,49.2,29.29,WNW,292,2.0,9.0,97,0.04,,,0.21,Weather View 32 v70,2013-04-20 08:51:00,
2013-04-20 04:56:00,50.0,49.2,29.29,West,270,1.0,9.0,97,0.05,,,0.22,Weather View 32 v70,2013-04-20 08:56:00,
2013-04-20 05:01:00,50.0,49.2,29.29,NE,45,1.0,9.0,97,0.06,,,0.23,Weather View 32 v70,2013-04-20 09:01:00,
2013-04-20 05:06:00,50.0,49.2,29.29,WSW,247,0.0,9.0,97,0.05,,,0.23,Weather View 32 v70,2013-04-20 09:06:00,
2013-04-20 05:11:00,50.0,49.2,29.30,NE,45,3.0,9.0,97,0.06,,,0.24,Weather View 32 v70,2013-04-20 09:11:00,
2013-04-20 05:16:00,48.0,47.2,29.30,North,360,1.0,13.0,97,0.08,,,0.27,Weather View 32 v70,2013-04-20 09:16:00,
2013-04-20 05:21:00,48.0,47.2,29.33,WNW,292,3.0,13.0,97,0.09,,,0.28,Weather View 32 v70,2013-04-20 09:21:00,
2013-04-20 05:26:00,47.0,46.2,29.33,West,270,3.0,13.0,97,0.11,,,0.30,Weather View 32 v70,2013-04-20 09:26:00,
2013-04-20 05:31:00,47.0,46.2,29.33,NW,315,4.0,13.0,97,0.12,,,0.32,Weather View 32 v70,2013-04-20 09:31:00,
2013-04-20 05:36:00,46.0,45.2,29.33,NW,315,5.0,13.0,97,0.14,,,0.34,Weather View 32 v70,2013-04-20 09:36:00,
2013-04-20 05:41:00,46.0,45.2,29.34,West,270,2.0,13.0,97,0.16,,,0.36,Weather View 32 v70,2013-04-20 09:41:00,
2013-04-20 05:46:00,46.0,45.2,29.34,West,270,2.0,13.0,97,0.16,,,0.37,Weather View 32 v70,2013-04-20 09:46:00,
2013-04-20 05:51:00,46.0,45.2,29.31,SW,225,1.0,13.0,97,0.17,,,0.38,Weather View 32 v70,2013-04-20 09:51:00,
2013-04-20 05:56:00,46.0,45.2,29.31,NW,315,0.0,13.0,97,0.17,,,0.39,Weather View 32 v70,2013-04-20 09:56:00,
2013-04-20 06:01:00,46.0,45.2,29.33,NW,315,2.0,13.0,97,0.16,,,0.39,Weather View 32 v70,2013-04-20 10:01:00,
2013-04-20 06:06:00,45.0,44.2,29.33,NW,315,6.0,13.0,97,0.17,,,0.40,Weather View 32 v70,2013-04-20 10:06:00,
2013-04-20 06:11:00,46.0,45.2,29.35,West,270,6.0,13.0,97,0.16,,,0.40,Weather View 32 v70,2013-04-20 10:11:00,
2013-04-20 06:16:00,45.0,44.2,29.35,West,270,6.0,10.0,97,0.14,,,0.41,Weather View 32 v70,2013-04-20 10:16:00,
2013-04-20 06:21:00,45.0,44.2,29.37,WSW,247,2.0,10.0,97,0.13,,,0.41,Weather View 32 v70,2013-04-20 10:21:00,
2013-04-20 06:26:00,45.0,44.2,29.37,WNW,292,5.0,10.0,97,0.12,,,0.42,Weather View 32 v70,2013-04-20 10:26:00,
2013-04-20 06:31:00,45.0,44.2,29.37,WNW,292,0.0,10.0,97,0.11,,,0.43,Weather View 32 v70,2013-04-20 10:31:00,
2013-04-20 06:36:00,45.0,44.2,29.37,WNW,292,6.0,10.0,97,0.09,,,0.43,Weather View 32 v70,2013-04-20 10:36:00,
2013-04-20 06:41:00,45.0,44.2,29.37,West,270,0.0,10.0,97,0.07,,,0.43,Weather View 32 v70,2013-04-20 10:41:00,
2013-04-20 06:46:00,45.0,44.2,29.37,NW,315,1.0,10.0,97,0.06,,,0.43,Weather View 32 v70,2013-04-20 10:46:00,
2013-04-20 06:51:00,45.0,44.2,29.38,West,270,1.0,10.0,97,0.05,,,0.43,Weather View 32 v70,2013-04-20 10:51:00,
2013-04-20 06:56:00,44.0,43.2,29.38,NW,315,1.0,10.0,97,0.04,,,0.43,Weather View 32 v70,2013-04-20 10:56:00,
2013-04-20 07:01:00,44.0,43.2,29.39,North,360,0.0,10.0,97,0.04,,,0.43,Weather View 32 v70,2013-04-20 11:01:00,
2013-04-20 07:06:00,44.0,43.2,29.39,West,270,2.0,10.0,97,0.03,,,0.43,Weather View 32 v70,2013-04-20 11:06:00,
2013-04-20 07:11:00,44.0,43.2,29.40,North,360,0.0,10.0,97,0.04,,,0.44,Weather View 32 v70,2013-04-20 11:11:00,
2013-04-20 07:16:00,44.0,43.2,29.40,West,270,0.0,10.0,97,0.03,,,0.45,Weather View 32 v70,2013-04-20 11:16:00,
2013-04-20 07:21:00,44.0,43.2,29.41,SW,225,4.0,10.0,97,0.05,,,0.46,Weather View 32 v70,2013-04-20 11:21:00,
2013-04-20 07:26:00,44.0,43.2,29.41,West,270,1.0,9.0,97,0.04,,,0.46,Weather View 32 v70,2013-04-20 11:26:00,
2013-04-20 07:31:00,44.0,43.2,29.42,West,270,8.0,9.0,97,0.03,,,0.46,Weather View 32 v70,2013-04-20 11:31:00,
2013-04-20 07:36:00,44.0,43.2,29.42,WNW,292,5.0,9.0,97,0.04,,,0.47,Weather View 32 v70,2013-04-20 11:36:00,
2013-04-20 07:41:00,44.0,43.2,29.42,West,270,0.0,9.0,97,0.04,,,0.47,Weather View 32 v70,2013-04-20 11:41:00,
2013-04-20 07:46:00,44.0,43.2,29.42,West,270,0.0,9.0,97,0.04,,,0.47,Weather View 32 v70,2013-04-20 11:46:00,
2013-04-20 07:51:00,44.0,43.2,29.43,WNW,292,3.0,9.0,97,0.04,,,0.47,Weather View 32 v70,2013-04-20 11:51:00,
2013-04-20 07:56:00,44.0,43.2,29.43,West,270,3.0,9.0,97,0.05,,,0.48,Weather View 32 v70,2013-04-20 11:56:00,
2013-04-20 08:01:00,44.0,43.2,29.43,NW,315,3.0,9.0,97,0.05,,,0.48,Weather View 32 v70,2013-04-20 12:01:00,
2013-04-20 08:06:00,44.0,43.2,29.43,WNW,292,2.0,9.0,97,0.05,,,0.48,Weather View 32 v70,2013-04-20 12:06:00,
2013-04-20 08:11:00,44.0,43.2,29.43,West,270,4.0,9.0,97,0.04,,,0.48,Weather View 32 v70,2013-04-20 12:11:00,
2013-04-20 08:16:00,44.0,43.2,29.43,NW,315,0.0,9.0,97,0.04,,,0.48,Weather View 32 v70,2013-04-20 12:16:00,
2013-04-20 08:21:00,44.0,43.2,29.43,West,270,4.0,9.0,97,0.02,,,0.48,Weather View 32 v70,2013-04-20 12:21:00,
2013-04-20 08:26:00,44.0,43.2,29.43,WNW,292,4.0,9.0,97,0.02,,,0.48,Weather View 32 v70,2013-04-20 12:26:00,
2013-04-20 08:31:00,44.0,43.2,29.44,NW,315,6.0,9.0,97,0.02,,,0.48,Weather View 32 v70,2013-04-20 12:31:00,
2013-04-20 08:36:00,44.0,43.2,29.44,West,270,3.0,9.0,97,0.01,,,0.48,Weather View 32 v70,2013-04-20 12:36:00,
2013-04-20 08:41:00,44.0,43.2,29.44,WNW,292,4.0,10.0,97,0.01,,,0.48,Weather View 32 v70,2013-04-20 12:41:00,
2013-04-20 08:46:00,44.0,43.2,29.44,WNW,292,4.0,10.0,97,0.01,,,0.48,Weather View 32 v70,2013-04-20 12:46:00,
2013-04-20 08:51:00,45.0,44.2,29.43,North,360,0.0,10.0,97,0.01,,,0.48,Weather View 32 v70,2013-04-20 12:51:00,
2013-04-20 08:56:00,45.0,44.2,29.43,WNW,292,8.0,10.0,97,0.00,,,0.48,Weather View 32 v70,2013-04-20 12:56:00,
2013-04-20 09:01:00,45.0,44.2,29.43,WNW,292,3.0,10.0,97,0.00,,,0.48,Weather View 32 v70,2013-04-20 13:01:00,
2013-04-20 09:06:00,45.0,44.2,29.43,SW,225,0.0,10.0,97,0.00,,,0.48,Weather View 32 v70,2013-04-20 13:06:00,
2013-04-20 09:11:00,45.0,44.2,29.43,NW,315,6.0,10.0,97,0.00,,,0.48,Weather View 32 v70,2013-04-20 13:11:00,
2013-04-20 09:16:00,45.0,43.9,29.43,West,270,5.0,10.0,96,0.00,,,0.48,Weather View 32 v70,2013-04-20 13:16:00,
2013-04-20 09:21:00,45.0,44.2,29.43,West,270,7.0,10.0,97,0.00,,,0.48,Weather View 32 v70,2013-04-20 13:21:00,
2013-04-20 09:26:00,45.0,42.8,29.43,West,270,6.0,12.0,92,0.00,,,0.48,Weather View 32 v70,2013-04-20 13:26:00,
2013-04-20 09:31:00,45.0,43.4,29.44,WNW,292,3.0,12.0,94,0.00,,,0.48,Weather View 32 v70,2013-04-20 13:31:00,
2013-04-20 09:36:00,45.0,42.2,29.44,NW,315,10.0,12.0,90,0.00,,,0.48,Weather View 32 v70,2013-04-20 13:36:00,
2013-04-20 09:41:00,45.0,42.2,29.44,NW,315,4.0,12.0,90,0.00,,,0.48,Weather View 32 v70,2013-04-20 13:41:00,
2013-04-20 09:46:00,45.0,41.7,29.44,West,270,6.0,12.0,88,0.00,,,0.48,Weather View 32 v70,2013-04-20 13:46:00,
2013-04-20 09:51:00,45.0,41.4,29.45,WNW,292,6.0,12.0,87,0.00,,,0.48,Weather View 32 v70,2013-04-20 13:51:00,
2013-04-20 09:56:00,45.0,41.7,29.45,WSW,247,10.0,12.0,88,0.00,,,0.48,Weather View 32 v70,2013-04-20 13:56:00,
2013-04-20 10:01:00,46.0,42.0,29.44,WNW,292,5.0,12.0,86,0.00,,,0.48,Weather View 32 v70,2013-04-20 14:01:00,
2013-04-20 10:06:00,46.0,42.0,29.44,NW,315,7.0,12.0,86,0.00,,,0.48,Weather View 32 v70,2013-04-20 14:06:00,
2013-04-20 10:11:00,46.0,40.5,29.45,West,270,2.0,12.0,81,0.00,,,0.48,Weather View 32 v70,2013-04-20 14:11:00,
2013-04-20 10:16:00,46.0,39.8,29.45,West,270,5.0,14.0,79,0.00,,,0.48,Weather View 32 v70,2013-04-20 14:16:00,
2013-04-20 10:21:00,47.0,41.1,29.45,WNW,292,3.0,14.0,80,0.00,,,0.48,Weather View 32 v70,2013-04-20 14:21:00,
2013-04-20 10:26:00,47.0,41.1,29.45,West,270,4.0,14.0,80,0.00,,,0.48,Weather View 32 v70,2013-04-20 14:26:00,
2013-04-20 10:31:00,48.0,40.8,29.45,WNW,292,5.0,14.0,76,0.00,,,0.48,Weather View 32 v70,2013-04-20 14:31:00,
2013-04-20 10:36:00,48.0,40.8,29.45,West,270,2.0,14.0,76,0.00,,,0.48,Weather View 32 v70,2013-04-20 14:36:00,
2013-04-20 10:41:00,50.0,41.0,29.45,NW,315,2.0,14.0,71,0.00,,,0.48,Weather View 32 v70,2013-04-20 14:41:00,
2013-04-20 10:46:00,49.0,38.5,29.45,NW,315,8.0,14.0,67,0.00,,,0.48,Weather View 32 v70,2013-04-20 14:46:00,
2013-04-20 10:51:00,50.0,40.6,29.45,NW,315,2.0,14.0,70,0.00,,,0.48,Weather View 32 v70,2013-04-20 14:51:00,
2013-04-20 10:56:00,50.0,39.5,29.45,WNW,292,14.0,15.0,67,0.00,,,0.48,Weather View 32 v70,2013-04-20 14:56:00,
2013-04-20 11:01:00,50.0,40.2,29.46,NW,315,2.0,17.0,69,0.00,,,0.48,Weather View 32 v70,2013-04-20 15:01:00,
2013-04-20 11:06:00,50.0,38.7,29.46,West,270,4.0,17.0,65,0.00,,,0.48,Weather View 32 v70,2013-04-20 15:06:00,
2013-04-20 11:11:00,51.0,39.6,29.46,SW,225,6.0,17.0,65,0.00,,,0.48,Weather View 32 v70,2013-04-20 15:11:00,
2013-04-20 11:16:00,50.0,37.1,29.46,WNW,292,9.0,21.0,61,0.00,,,0.48,Weather View 32 v70,2013-04-20 15:16:00,
2013-04-20 11:21:00,51.0,38.0,29.47,West,270,10.0,21.0,61,0.00,,,0.48,Weather View 32 v70,2013-04-20 15:21:00,
2013-04-20 11:26:00,51.0,38.4,29.47,West,270,5.0,21.0,62,0.00,,,0.48,Weather View 32 v70,2013-04-20 15:26:00,
2013-04-20 11:31:00,52.0,38.1,29.46,West,270,8.0,21.0,59,0.00,,,0.48,Weather View 32 v70,2013-04-20 15:31:00,
2013-04-20 11:36:00,52.0,37.7,29.46,WNW,292,9.0,21.0,58,0.00,,,0.48,Weather View 32 v70,2013-04-20 15:36:00,
2013-04-20 11:41:00,52.0,38.9,29.47,West,270,7.0,21.0,61,0.00,,,0.48,Weather View 32 v70,2013-04-20 15:41:00,
2013-04-20 11:46:00,52.0,37.7,29.47,West,270,5.0,21.0,58,0.00,,,0.48,Weather View 32 v70,2013-04-20 15:46:00,
2013-04-20 11:51:00,52.0,37.2,29.47,NW,315,8.0,21.0,57,0.00,,,0.48,Weather View 32 v70,2013-04-20 15:51:00,
2013-04-20 11:56:00,53.0,37.7,29.47,NW,315,7.0,21.0,56,0.00,,,0.48,Weather View 32 v70,2013-04-20 15:56:00,
2013-04-20 12:01:00,53.0,37.2,29.47,West,270,5.0,21.0,55,0.00,,,0.48,Weather View 32 v70,2013-04-20 16:01:00,
2013-04-20 12:06:00,52.0,38.1,29.47,NW,315,3.0,21.0,59,0.00,,,0.48,Weather View 32 v70,2013-04-20 16:06:00,
2013-04-20 12:11:00,52.0,37.7,29.47,West,270,7.0,21.0,58,0.00,,,0.48,Weather View 32 v70,2013-04-20 16:11:00,
2013-04-20 12:16:00,52.0,37.7,29.47,NW,315,7.0,21.0,58,0.00,,,0.48,Weather View 32 v70,2013-04-20 16:16:00,
2013-04-20 12:21:00,52.0,35.8,29.48,NW,315,5.0,19.0,54,0.00,,,0.48,Weather View 32 v70,2013-04-20 16:21:00,
2013-04-20 12:26:00,52.0,35.4,29.48,West,270,7.0,19.0,53,0.00,,,0.48,Weather View 32 v70,2013-04-20 16:26:00,
2013-04-20 12:31:00,53.0,36.3,29.47,West,270,8.0,19.0,53,0.00,,,0.48,Weather View 32 v70,2013-04-20 16:31:00,
2013-04-20 12:36:00,53.0,36.3,29.47,NW,315,3.0,19.0,53,0.00,,,0.48,Weather View 32 v70,2013-04-20 16:36:00,
2013-04-20 12:41:00,53.0,33.8,29.47,West,270,9.0,19.0,48,0.00,,,0.48,Weather View 32 v70,2013-04-20 16:41:00,
2013-04-20 12:46:00,52.0,32.9,29.47,West,270,13.0,21.0,48,0.00,,,0.48,Weather View 32 v70,2013-04-20 16:46:00,
2013-04-20 12:51:00,53.0,34.8,29.48,NW,315,8.0,21.0,50,0.00,,,0.48,Weather View 32 v70,2013-04-20 16:51:00,
2013-04-20 12:56:00,53.0,34.8,29.48,NW,315,6.0,21.0,50,0.00,,,0.48,Weather View 32 v70,2013-04-20 16:56:00,
2013-04-20 13:01:00,53.0,34.3,29.48,West,270,12.0,21.0,49,0.00,,,0.48,Weather View 32 v70,2013-04-20 17:01:00,
2013-04-20 13:06:00,52.0,32.9,29.48,West,270,7.0,21.0,48,0.00,,,0.48,Weather View 32 v70,2013-04-20 17:06:00,
2013-04-20 13:11:00,53.0,33.8,29.47,West,270,11.0,21.0,48,0.00,,,0.48,Weather View 32 v70,2013-04-20 17:11:00,
2013-04-20 13:16:00,53.0,32.7,29.47,NW,315,12.0,21.0,46,0.00,,,0.48,Weather View 32 v70,2013-04-20 17:16:00,
2013-04-20 13:21:00,53.0,33.3,29.48,West,270,9.0,21.0,47,0.00,,,0.48,Weather View 32 v70,2013-04-20 17:21:00,
2013-04-20 13:26:00,53.0,33.3,29.48,West,270,2.0,21.0,47,0.00,,,0.48,Weather View 32 v70,2013-04-20 17:26:00,
2013-04-20 13:31:00,53.0,33.3,29.48,North,360,7.0,21.0,47,0.00,,,0.48,Weather View 32 v70,2013-04-20 17:31:00,
2013-04-20 13:36:00,53.0,33.3,29.48,WNW,292,7.0,21.0,47,0.00,,,0.48,Weather View 32 v70,2013-04-20 17:36:00,
2013-04-20 13:41:00,54.0,33.6,29.48,WNW,292,10.0,21.0,46,0.00,,,0.48,Weather View 32 v70,2013-04-20 17:41:00,
2013-04-20 13:46:00,54.0,33.6,29.48,North,360,4.0,20.0,46,0.00,,,0.48,Weather View 32 v70,2013-04-20 17:46:00,
2013-04-20 13:51:00,54.0,33.6,29.48,WNW,292,11.0,20.0,46,0.00,,,0.48,Weather View 32 v70,2013-04-20 17:51:00,
2013-04-20 13:56:00,53.0,31.6,29.48,NW,315,5.0,20.0,44,0.00,,,0.48,Weather View 32 v70,2013-04-20 17:56:00,
2013-04-20 14:01:00,54.0,32.5,29.48,NW,315,12.0,20.0,44,0.00,,,0.48,Weather View 32 v70,2013-04-20 18:01:00,
2013-04-20 14:06:00,53.0,31.1,29.48,West,270,9.0,22.0,43,0.00,,,0.48,Weather View 32 v70,2013-04-20 18:06:00,
2013-04-20 14:11:00,54.0,33.1,29.49,North,360,3.0,22.0,45,0.00,,,0.48,Weather View 32 v70,2013-04-20 18:11:00,
2013-04-20 14:16:00,54.0,32.0,29.49,NW,315,7.0,22.0,43,0.00,,,0.48,Weather View 32 v70,2013-04-20 18:16:00,
2013-04-20 14:21:00,54.0,32.0,29.49,West,270,9.0,22.0,43,0.00,,,0.48,Weather View 32 v70,2013-04-20 18:21:00,
2013-04-20 14:26:00,54.0,32.5,29.49,NW,315,6.0,22.0,44,0.00,,,0.48,Weather View 32 v70,2013-04-20 18:26:00,
2013-04-20 14:31:00,54.0,34.2,29.50,NE,45,0.0,22.0,47,0.00,,,0.48,Weather View 32 v70,2013-04-20 18:31:00,
2013-04-20 14:36:00,54.0,32.0,29.50,West,270,6.0,22.0,43,0.00,,,0.48,Weather View 32 v70,2013-04-20 18:36:00,
2013-04-20 14:41:00,53.0,32.7,29.51,NW,315,4.0,22.0,46,0.00,,,0.48,Weather View 32 v70,2013-04-20 18:41:00,
2013-04-20 14:46:00,53.0,33.8,29.51,NW,315,2.0,22.0,48,0.00,,,0.48,Weather View 32 v70,2013-04-20 18:46:00,
2013-04-20 14:51:00,53.0,33.8,29.51,NW,315,5.0,22.0,48,0.00,,,0.48,Weather View 32 v70,2013-04-20 18:51:00,
2013-04-20 14:56:00,53.0,34.3,29.51,NW,315,2.0,22.0,49,0.00,,,0.48,Weather View 32 v70,2013-04-20 18:56:00,
2013-04-20 15:01:00,54.0,32.0,29.50,West,270,9.0,22.0,43,0.00,,,0.48,Weather View 32 v70,2013-04-20 19:01:00,
2013-04-20 15:06:00,54.0,32.0,29.50,NW,315,6.0,22.0,43,0.00,,,0.48,Weather View 32 v70,2013-04-20 19:06:00,
2013-04-20 15:11:00,54.0,32.5,29.51,WNW,292,7.0,25.0,44,0.00,,,0.48,Weather View 32 v70,2013-04-20 19:11:00,
2013-04-20 15:16:00,54.0,30.8,29.51,WNW,292,15.0,25.0,41,0.00,,,0.48,Weather View 32 v70,2013-04-20 19:16:00,
2013-04-20 15:21:00,54.0,30.8,29.51,West,270,9.0,25.0,41,0.00,,,0.48,Weather View 32 v70,2013-04-20 19:21:00,
2013-04-20 15:26:00,54.0,32.0,29.51,West,270,5.0,25.0,43,0.00,,,0.48,Weather View 32 v70,2013-04-20 19:26:00,
2013-04-20 15:31:00,54.0,32.0,29.51,SW,225,8.0,25.0,43,0.00,,,0.48,Weather View 32 v70,2013-04-20 19:31:00,
2013-04-20 15:36:00,53.0,31.1,29.51,West,270,7.0,25.0,43,0.00,,,0.48,Weather View 32 v70,2013-04-20 19:36:00,
2013-04-20 15:41:00,53.0,31.6,29.51,West,270,15.0,25.0,44,0.00,,,0.48,Weather View 32 v70,2013-04-20 19:41:00,
2013-04-20 15:46:00,53.0,30.5,29.51,West,270,11.0,25.0,42,0.00,,,0.48,Weather View 32 v70,2013-04-20 19:46:00,
2013-04-20 15:51:00,54.0,31.4,29.52,West,270,13.0,25.0,42,0.00,,,0.48,Weather View 32 v70,2013-04-20 19:51:00,
2013-04-20 15:56:00,54.0,31.4,29.52,West,270,10.0,25.0,42,0.00,,,0.48,Weather View 32 v70,2013-04-20 19:56:00,
2013-04-20 16:01:00,54.0,31.4,29.52,WNW,292,6.0,25.0,42,0.00,,,0.48,Weather View 32 v70,2013-04-20 20:01:00,
2013-04-20 16:06:00,54.0,30.8,29.52,West,270,10.0,25.0,41,0.00,,,0.48,Weather View 32 v70,2013-04-20 20:06:00,
2013-04-20 16:11:00,54.0,30.8,29.53,West,270,7.0,20.0,41,0.00,,,0.48,Weather View 32 v70,2013-04-20 20:11:00,
2013-04-20 16:16:00,54.0,30.8,29.53,West,270,11.0,20.0,41,0.00,,,0.48,Weather View 32 v70,2013-04-20 20:16:00,
2013-04-20 16:21:00,54.0,31.4,29.53,West,270,6.0,20.0,42,0.00,,,0.48,Weather View 32 v70,2013-04-20 20:21:00,
2013-04-20 16:26:00,54.0,33.1,29.53,NW,315,4.0,20.0,45,0.00,,,0.48,Weather View 32 v70,2013-04-20 20:26:00,
2013-04-20 16:31:00,54.0,32.0,29.54,NW,315,9.0,19.0,43,0.00,,,0.48,Weather View 32 v70,2013-04-20 20:31:00,
2013-04-20 16:36:00,54.0,32.0,29.54,West,270,7.0,19.0,43,0.00,,,0.48,Weather View 32 v70,2013-04-20 20:36:00,
2013-04-20 16:41:00,54.0,32.5,29.55,East,90,0.0,19.0,44,0.00,,,0.48,Weather View 32 v70,2013-04-20 20:41:00,
2013-04-20 16:46:00,54.0,33.1,29.55,NW,315,4.0,19.0,45,0.00,,,0.48,Weather View 32 v70,2013-04-20 20:46:00,
2013-04-20 16:51:00,54.0,31.4,29.55,SSW,202,2.0,17.0,42,0.00,,,0.48,Weather View 32 v70,2013-04-20 20:51:00,
2013-04-20 16:56:00,54.0,32.5,29.55,NW,315,7.0,17.0,44,0.00,,,0.48,Weather View 32 v70,2013-04-20 20:56:00,
2013-04-20 17:01:00,55.0,31.7,29.55,WNW,292,9.0,16.0,41,0.00,,,0.48,Weather View 32 v70,2013-04-20 21:01:00,
2013-04-20 17:06:00,55.0,31.1,29.55,NW,315,3.0,16.0,40,0.00,,,0.48,Weather View 32 v70,2013-04-20 21:06:00,
2013-04-20 17:11:00,55.0,30.4,29.56,WSW,247,7.0,15.0,39,0.00,,,0.48,Weather View 32 v70,2013-04-20 21:11:00,
2013-04-20 17:16:00,54.0,28.3,29.56,West,270,11.0,15.0,37,0.00,,,0.48,Weather View 32 v70,2013-04-20 21:16:00,
2013-04-20 17:21:00,54.0,28.3,29.57,West,270,9.0,15.0,37,0.00,,,0.48,Weather View 32 v70,2013-04-20 21:21:00,
2013-04-20 17:26:00,54.0,28.3,29.57,West,270,10.0,15.0,37,0.00,,,0.48,Weather View 32 v70,2013-04-20 21:26:00,
2013-04-20 17:31:00,54.0,28.3,29.57,WNW,292,9.0,15.0,37,0.00,,,0.48,Weather View 32 v70,2013-04-20 21:31:00,
2013-04-20 17:36:00,53.0,28.7,29.57,NW,315,4.0,15.0,39,0.00,,,0.48,Weather View 32 v70,2013-04-20 21:36:00,
2013-04-20 17:41:00,54.0,29.6,29.58,East,90,2.0,15.0,39,0.00,,,0.48,Weather View 32 v70,2013-04-20 21:41:00,
2013-04-20 17:46:00,53.0,27.4,29.58,NW,315,6.0,15.0,37,0.00,,,0.48,Weather View 32 v70,2013-04-20 21:46:00,
2013-04-20 17:51:00,54.0,28.3,29.58,West,270,6.0,17.0,37,0.00,,,0.48,Weather View 32 v70,2013-04-20 21:51:00,
2013-04-20 17:56:00,53.0,28.0,29.58,West,270,8.0,18.0,38,0.00,,,0.48,Weather View 32 v70,2013-04-20 21:56:00,
2013-04-20 18:01:00,53.0,28.0,29.59,West,270,7.0,18.0,38,0.00,,,0.48,Weather View 32 v70,2013-04-20 22:01:00,
2013-04-20 18:06:00,53.0,28.7,29.59,WNW,292,6.0,18.0,39,0.00,,,0.48,Weather View 32 v70,2013-04-20 22:06:00,
2013-04-20 18:11:00,53.0,28.7,29.60,WNW,292,6.0,18.0,39,0.00,,,0.48,Weather View 32 v70,2013-04-20 22:11:00,
2013-04-20 18:16:00,53.0,29.3,29.60,WNW,292,4.0,18.0,40,0.00,,,0.48,Weather View 32 v70,2013-04-20 22:16:00,
2013-04-20 18:21:00,53.0,28.7,29.60,West,270,4.0,18.0,39,0.00,,,0.48,Weather View 32 v70,2013-04-20 22:21:00,
2013-04-20 18:26:00,53.0,27.4,29.60,NW,315,8.0,18.0,37,0.00,,,0.48,Weather View 32 v70,2013-04-20 22:26:00,
2013-04-20 18:31:00,53.0,28.0,29.61,SW,225,7.0,18.0,38,0.00,,,0.48,Weather View 32 v70,2013-04-20 22:31:00,
2013-04-20 18:36:00,53.0,27.4,29.61,WNW,292,15.0,18.0,37,0.00,,,0.48,Weather View 32 v70,2013-04-20 22:36:00,
2013-04-20 18:41:00,53.0,28.0,29.61,SW,225,2.0,19.0,38,0.00,,,0.48,Weather View 32 v70,2013-04-20 22:41:00,
2013-04-20 18:46:00,52.0,27.1,29.61,WNW,292,3.0,19.0,38,0.00,,,0.48,Weather View 32 v70,2013-04-20 22:46:00,
2013-04-20 18:51:00,52.0,27.1,29.63,West,270,5.0,19.0,38,0.00,,,0.48,Weather View 32 v70,2013-04-20 22:51:00,
2013-04-20 18:56:00,51.0,27.5,29.63,West,270,7.0,19.0,40,0.00,,,0.48,Weather View 32 v70,2013-04-20 22:56:00,
2013-04-20 19:01:00,51.0,28.1,29.64,NW,315,4.0,19.0,41,0.00,,,0.48,Weather View 32 v70,2013-04-20 23:01:00,
2013-04-20 19:06:00,51.0,28.7,29.64,West,270,6.0,19.0,42,0.00,,,0.48,Weather View 32 v70,2013-04-20 23:06:00,
2013-04-20 19:11:00,51.0,28.7,29.65,West,270,4.0,19.0,42,0.00,,,0.48,Weather View 32 v70,2013-04-20 23:11:00,
2013-04-20 19:16:00,50.0,27.2,29.65,West,270,6.0,19.0,41,0.00,,,0.48,Weather View 32 v70,2013-04-20 23:16:00,
2013-04-20 19:21:00,50.0,27.2,29.66,West,270,6.0,19.0,41,0.00,,,0.48,Weather View 32 v70,2013-04-20 23:21:00,
2013-04-20 19:26:00,49.0,26.3,29.66,West,270,5.0,19.0,41,0.00,,,0.48,Weather View 32 v70,2013-04-20 23:26:00,
2013-04-20 19:31:00,49.0,26.3,29.67,NW,315,8.0,19.0,41,0.00,,,0.48,Weather View 32 v70,2013-04-20 23:31:00,
2013-04-20 19:36:00,49.0,26.3,29.67,WNW,292,8.0,19.0,41,0.00,,,0.48,Weather View 32 v70,2013-04-20 23:36:00,
2013-04-20 19:41:00,49.0,26.3,29.68,West,270,1.0,15.0,41,0.00,,,0.48,Weather View 32 v70,2013-04-20 23:41:00,
2013-04-20 19:46:00,49.0,26.9,29.68,West,270,6.0,15.0,42,0.00,,,0.48,Weather View 32 v70,2013-04-20 23:46:00,
2013-04-20 19:51:00,49.0,26.9,29.69,West,270,2.0,15.0,42,0.00,,,0.48,Weather View 32 v70,2013-04-20 23:51:00,
2013-04-20 19:56:00,48.0,26.0,29.69,WNW,292,7.0,12.0,42,0.00,,,0.48,Weather View 32 v70,2013-04-20 23:56:00,
2013-04-20 20:01:00,48.0,26.5,29.69,NE,45,1.0,12.0,43,0.00,,,0.48,Weather View 32 v70,2013-04-21 00:01:00,
2013-04-20 20:06:00,48.0,26.5,29.69,North,360,2.0,12.0,43,0.00,,,0.48,Weather View 32 v70,2013-04-21 00:06:00,
2013-04-20 20:11:00,48.0,26.5,29.70,West,270,2.0,12.0,43,0.00,,,0.48,Weather View 32 v70,2013-04-21 00:11:00,
2013-04-20 20:16:00,47.0,26.2,29.70,West,270,1.0,12.0,44,0.00,,,0.48,Weather View 32 v70,2013-04-21 00:16:00,
2013-04-20 20:21:00,47.0,26.2,29.72,NW,315,2.0,12.0,44,0.00,,,0.48,Weather View 32 v70,2013-04-21 00:21:00,
2013-04-20 20:26:00,47.0,25.6,29.72,West,270,2.0,12.0,43,0.00,,,0.48,Weather View 32 v70,2013-04-21 00:26:00,
2013-04-20 20:31:00,47.0,25.6,29.72,West,270,0.0,12.0,43,0.00,,,0.48,Weather View 32 v70,2013-04-21 00:31:00,
2013-04-20 20:36:00,46.0,25.8,29.72,NW,315,1.0,12.0,45,0.00,,,0.48,Weather View 32 v70,2013-04-21 00:36:00,
2013-04-20 20:41:00,46.0,25.3,29.74,NW,315,3.0,12.0,44,0.00,,,0.48,Weather View 32 v70,2013-04-21 00:41:00,
2013-04-20 20:46:00,46.0,26.3,29.74,WNW,292,2.0,12.0,46,0.00,,,0.48,Weather View 32 v70,2013-04-21 00:46:00,
2013-04-20 20:51:00,46.0,26.9,29.75,NW,315,0.0,12.0,47,0.00,,,0.48,Weather View 32 v70,2013-04-21 00:51:00,
2013-04-20 20:56:00,45.0,24.9,29.75,NW,315,3.0,12.0,45,0.00,,,0.48,Weather View 32 v70,2013-04-21 00:56:00,
2013-04-20 21:01:00,46.0,26.3,29.75,NW,315,2.0,12.0,46,0.00,,,0.48,Weather View 32 v70,2013-04-21 01:01:00,
2013-04-20 21:06:00,45.0,24.9,29.75,West,270,7.0,12.0,45,0.00,,,0.48,Weather View 32 v70,2013-04-21 01:06:00,
2013-04-20 21:11:00,45.0,24.9,29.75,NW,315,7.0,11.0,45,0.00,,,0.48,Weather View 32 v70,2013-04-21 01:11:00,
2013-04-20 21:16:00,45.0,24.9,29.75,NW,315,3.0,11.0,45,0.00,,,0.48,Weather View 32 v70,2013-04-21 01:16:00,
2013-04-20 21:21:00,45.0,24.9,29.76,WSW,247,2.0,11.0,45,0.00,,,0.48,Weather View 32 v70,2013-04-21 01:21:00,
2013-04-20 21:26:00,45.0,24.9,29.76,SSE,157,2.0,10.0,45,0.00,,,0.48,Weather View 32 v70,2013-04-21 01:26:00,
2013-04-20 21:31:00,45.0,24.9,29.77,NW,315,0.0,10.0,45,0.00,,,0.48,Weather View 32 v70,2013-04-21 01:31:00,
2013-04-20 21:36:00,45.0,24.9,29.77,North,360,2.0,12.0,45,0.00,,,0.48,Weather View 32 v70,2013-04-21 01:36:00,
2013-04-20 21:41:00,45.0,24.9,29.77,West,270,4.0,13.0,45,0.00,,,0.48,Weather View 32 v70,2013-04-21 01:41:00,
2013-04-20 21:46:00,45.0,24.9,29.77,NW,315,7.0,13.0,45,0.00,,,0.48,Weather View 32 v70,2013-04-21 01:46:00,
2013-04-20 21:51:00,45.0,24.4,29.77,West,270,7.0,13.0,44,0.00,,,0.48,Weather View 32 v70,2013-04-21 01:51:00,
2013-04-20 21:56:00,45.0,24.9,29.77,West,270,8.0,13.0,45,0.00,,,0.48,Weather View 32 v70,2013-04-21 01:56:00,
2013-04-20 22:01:00,45.0,26.0,29.78,West,270,0.0,13.0,47,0.00,,,0.48,Weather View 32 v70,2013-04-21 02:01:00,
2013-04-20 22:06:00,44.0,25.5,29.78,West,270,1.0,13.0,48,0.00,,,0.48,Weather View 32 v70,2013-04-21 02:06:00,
2013-04-20 22:11:00,43.0,25.1,29.79,NW,315,1.0,13.0,49,0.00,,,0.48,Weather View 32 v70,2013-04-21 02:11:00,
2013-04-20 22:16:00,43.0,26.1,29.79,West,270,1.0,13.0,51,0.00,,,0.48,Weather View 32 v70,2013-04-21 02:16:00,
2013-04-20 22:21:00,43.0,25.1,29.80,West,270,6.0,13.0,49,0.00,,,0.48,Weather View 32 v70,2013-04-21 02:21:00,
2013-04-20 22:26:00,43.0,25.1,29.80,NW,315,3.0,13.0,49,0.00,,,0.48,Weather View 32 v70,2013-04-21 02:26:00,
2013-04-20 22:31:00,43.0,23.6,29.80,West,270,6.0,13.0,46,0.00,,,0.48,Weather View 32 v70,2013-04-21 02:31:00,
2013-04-20 22:36:00,43.0,23.6,29.80,West,270,6.0,15.0,46,0.00,,,0.48,Weather View 32 v70,2013-04-21 02:36:00,
2013-04-20 22:41:00,43.0,23.6,29.82,NW,315,3.0,15.0,46,0.00,,,0.48,Weather View 32 v70,2013-04-21 02:41:00,
2013-04-20 22:46:00,43.0,23.6,29.82,NW,315,4.0,15.0,46,0.00,,,0.48,Weather View 32 v70,2013-04-21 02:46:00,
2013-04-20 22:51:00,43.0,23.1,29.82,West,270,6.0,15.0,45,0.00,,,0.48,Weather View 32 v70,2013-04-21 02:51:00,
2013-04-20 22:56:00,42.0,22.7,29.82,WSW,247,5.0,15.0,46,0.00,,,0.48,Weather View 32 v70,2013-04-21 02:56:00,
2013-04-20 23:01:00,42.0,22.7,29.82,WNW,292,10.0,15.0,46,0.00,,,0.48,Weather View 32 v70,2013-04-21 03:01:00,
2013-04-20 23:06:00,42.0,23.7,29.82,NW,315,3.0,15.0,48,0.00,,,0.48,Weather View 32 v70,2013-04-21 03:06:00,
2013-04-20 23:11:00,42.0,23.2,29.83,WNW,292,6.0,15.0,47,0.00,,,0.48,Weather View 32 v70,2013-04-21 03:11:00,
2013-04-20 23:16:00,42.0,23.7,29.83,West,270,3.0,15.0,48,0.00,,,0.48,Weather View 32 v70,2013-04-21 03:16:00,
2013-04-20 23:21:00,42.0,23.7,29.83,West,270,5.0,15.0,48,0.00,,,0.48,Weather View 32 v70,2013-04-21 03:21:00,
2013-04-20 23:26:00,41.0,22.8,29.83,West,270,6.0,15.0,48,0.00,,,0.48,Weather View 32 v70,2013-04-21 03:26:00,
2013-04-20 23:31:00,42.0,22.7,29.83,NW,315,3.0,15.0,46,0.00,,,0.48,Weather View 32 v70,2013-04-21 03:31:00,
2013-04-20 23:36:00,41.0,22.8,29.83,East,90,1.0,15.0,48,0.00,,,0.48,Weather View 32 v70,2013-04-21 03:36:00,
2013-04-20 23:41:00,41.0,22.8,29.85,West,270,5.0,13.0,48,0.00,,,0.48,Weather View 32 v70,2013-04-21 03:41:00,
2013-04-20 23:46:00,41.0,23.3,29.85,North,360,0.0,13.0,49,0.00,,,0.48,Weather View 32 v70,2013-04-21 03:46:00,
2013-04-20 23:51:00,40.0,22.8,29.86,South,180,1.0,13.0,50,0.00,,,0.48,Weather View 32 v70,2013-04-21 03:51:00,
2013-04-20 23:56:00,40.0,22.4,29.86,West,270,5.0,13.0,49,0.00,,,0.48,Weather View 32 v70,2013-04-21 03:56:00,